Wind_Speed
6 5 5 5 5 5 6 6 6 7 7 7 8 8 9 9 8 8 8 9 9 8 8 9 9 8 7 7 7 5 5 5 6 7 6 6 5 4 4 4 5 5 5
7 6 5 5 5 5 6 6 7 7 7 8 7 8 8 8 8 8 8 8 9 8 8 9 8 8 8 7 6 5 5 5 7 6 6 7 6 5 3 4 5 5 5
7 6 5 5 5 6 6 6 6 6 7 7 7 7 7 8 8 8 8 8 8 7 8 8 8 8 8 7 6 5 5 6 7 6 6 7 6 5 4 4 5 5 5
7 7 6 6 6 7 6 6 6 6 7 7 6 7 7 8 8 8 9 9 8 7 7 8 8 8 8 7 6 5 6 6 5 5 5 6 6 5 5 5 5 5 5
8 7 7 6 7 7 7 7 7 7 7 7 6 6 6 7 7 9 9 9 8 7 7 7 7 8 7 7 6 6 5 4 4 5 5 6 5 6 6 5 5 5 5
8 7 7 6 7 7 7 7 7 8 8 8 7 7 7 7 8 9 9 8 7 7 7 7 7 7 7 6 6 5 5 4 4 5 5 5 5 6 6 5 5 5 4
8 7 7 7 7 7 8 8 8 8 8 8 8 8 7 8 8 8 8 8 7 7 7 7 7 7 7 5 5 5 4 4 4 5 5 4 5 6 5 5 4 4 4
8 8 7 7 7 8 8 9 9 8 8 8 8 8 8 8 8 8 7 7 6 6 6 6 6 7 7 6 5 5 4 4 3 4 4 4 5 6 5 5 5 4 4
8 8 8 7 7 7 8 9 8 8 8 8 8 8 8 8 7 7 7 6 6 6 6 7 6 6 6 5 4 4 4 3 3 3 3 4 5 5 4 4 4 4 4
9 9 9 8 8 8 8 9 8 8 8 8 8 8 7 7 7 6 6 5 5 4 5 6 7 6 7 5 5 4 4 4 3 3 3 4 4 4 4 4 3 3 4
10 10 9 8 8 8 8 8 8 8 8 8 8 7 8 7 6 5 5 4 4 4 5 6 8 7 7 6 5 5 4 3 2 3 4 4 4 4 3 3 3 3 3
10 10 9 8 8 8 8 8 8 8 8 7 7 7 7 7 6 5 5 4 4 5 6 7 7 7 7 6 5 4 3 2 1 3 3 3 3 3 3 2 2 3 4
10 10 9 9 8 8 8 8 8 8 7 7 6 6 6 6 6 5 5 5 5 5 6 6 5 5 6 6 5 4 3 2 2 3 3 3 2 3 3 3 4 4 4
10 9 9 8 8 8 8 8 8 8 8 7 7 7 6 6 5 4 4 4 4 4 6 6 5 5 5 5 5 4 3 2 1 2 2 2 2 3 3 4 4 4 5
10 9 8 8 8 8 8 8 8 7 7 7 7 7 6 5 5 5 4 4 4 4 5 5 5 4 4 4 4 4 3 2 2 1 1 1 2 3 3 4 4 5 6
11 10 9 8 8 7 7 7 7 7 7 7 7 6 6 5 5 5 5 5 5 5 5 5 5 4 3 3 3 3 3 2 2 1 1 2 2 3 3 3 4 5 6
11 11 10 9 9 8 7 7 7 7 7 7 7 6 6 6 6 5 5 6 6 5 5 4 3 3 2 2 3 2 2 2 3 2 2 2 2 3 3 3 4 5 7
11 11 10 9 9 8 7 7 7 7 7 7 7 6 6 7 7 6 6 6 6 5 4 4 3 2 1 2 2 2 1 2 2 1 2 2 3 3 4 5 6 6 7
11 11 10 9 9 8 8 8 8 8 7 7 7 7 7 7 6 6 6 6 5 5 4 3 2 1 0 1 0 1 1 2 2 2 2 2 3 3 4 6 6 7 8
11 11 11 10 9 9 9 8 8 8 8 8 7 7 7 7 7 7 6 5 5 4 4 3 2 2 2 1 0 1 2 2 2 2 3 4 5 5 5 6 6 7 8
10 10 10 10 10 10 10 9 9 8 8 8 8 7 7 6 6 6 6 5 4 4 3 3 3 3 2 2 1 1 2 2 2 3 4 5 6 6 6 6 7 8 8
10 10 10 10 10 10 9 9 8 9 9 9 8 7 7 6 6 5 5 4 4 3 2 2 1 1 2 2 1 2 2 3 3 3 4 5 6 6 6 7 8 9 9
8 9 9 9 9 9 9 8 8 8 9 8 8 7 6 6 5 5 5 4 4 3 2 2 2 3 3 3 3 4 4 4 4 4 5 5 6 6 7 8 8 9 9
7 7 8 8 8 8 8 7 7 7 7 7 7 6 5 5 5 5 5 5 4 4 3 3 3 4 4 4 4 4 5 5 4 5 6 6 7 7 7 8 9 9 10
6 6 7 7 7 7 7 6 6 6 6 6 6 6 5 5 5 5 5 5 5 5 5 5 5 5 5 5 5 5 6 6 6 7 7 8 8 8 8 9 10 10 11
6 6 6 6 6 6 6 5 5 5 4 5 5 5 5 6 6 6 6 6 6 6 6 6 7 7 7 6 7 7 7 7 7 8 9 9 9 9 10 11 12 12 13
Wind_Direction
108 109 108 112 104 107 115 118 120 121 122 131 136 137 136 136 135 139 142 143 142 144 147 151 153 154 152 147 146 146 148 164 181 191 196 189 183 182 186 185 181 193 202
111 112 114 111 107 109 114 121 123 126 130 133 137 138 140 141 142 145 149 147 145 146 150 158 157 158 156 154 147 143 146 155 165 175 187 185 182 183 195 203 195 203 211
110 111 113 107 108 107 113 121 122 125 133 136 137 139 142 144 149 153 156 154 151 152 154 159 162 164 161 161 161 157 151 153 163 166 171 178 184 187 196 212 210 212 214
106 105 107 105 110 108 110 121 125 124 129 132 135 137 142 150 153 157 160 157 155 152 151 152 159 159 164 170 169 168 162 160 173 185 187 183 190 191 199 202 205 208 219
104 105 108 107 109 110 112 119 125 121 126 129 132 138 145 151 155 154 152 153 153 152 149 148 150 159 165 173 177 179 174 174 185 195 192 192 198 196 206 203 207 214 222
105 107 104 104 105 106 110 112 117 119 127 130 127 129 134 137 147 155 156 156 155 152 152 154 156 159 164 168 173 185 191 188 189 194 192 195 199 200 204 210 217 213 211
106 104 103 102 103 101 103 106 111 119 119 122 123 121 124 130 138 148 155 159 160 161 162 164 164 168 169 165 172 183 190 196 197 197 196 203 206 207 200 207 211 209 214
104 100 100 99 98 96 97 104 108 112 115 114 116 119 119 121 130 141 148 157 156 161 164 164 163 169 170 171 171 181 195 203 201 193 192 211 209 206 202 209 220 213 222
99 98 98 98 98 96 98 104 108 107 111 113 113 114 114 118 123 134 140 147 155 153 156 155 158 170 177 170 168 180 195 205 206 205 207 213 210 204 198 210 212 213 216
98 99 97 97 95 94 99 105 103 101 103 108 113 116 115 117 120 128 133 140 153 155 155 162 171 175 175 171 172 178 177 186 199 211 207 208 204 200 203 207 212 219 225
96 96 98 97 94 93 98 102 101 96 97 103 111 117 117 117 116 120 125 128 144 160 159 156 164 167 171 166 161 162 163 177 178 187 185 192 198 199 207 213 223 231 244
95 95 97 96 94 97 99 100 96 95 94 99 106 112 117 117 114 109 105 110 123 142 150 152 158 161 167 168 161 160 162 169 192 175 175 184 182 183 197 214 228 235 249
96 95 94 95 93 96 98 101 98 91 90 96 101 107 109 112 112 109 106 105 119 134 139 147 159 166 174 172 169 163 161 168 211 186 172 183 188 194 215 231 243 256 263
96 95 96 94 92 95 98 99 96 91 89 92 95 105 106 107 110 110 111 106 110 119 124 143 157 169 174 177 176 176 170 162 160 147 158 195 214 227 238 248 263 274 276
85 92 95 101 97 97 95 95 93 89 89 88 87 92 98 104 107 110 122 121 121 116 113 117 128 153 169 172 180 190 187 189 173 169 188 221 227 240 254 267 280 285 287
80 84 92 95 96 98 98 95 93 89 90 88 84 83 87 95 102 105 113 114 115 109 118 114 106 126 134 156 182 192 192 207 207 193 243 251 256 262 286 284 284 291 287
79 81 84 90 93 96 97 100 94 89 87 85 82 81 86 89 96 100 109 108 110 106 101 110 110 118 124 153 162 170 195 217 217 228 252 268 272 280 288 295 297 300 297
76 77 80 83 89 90 94 95 91 87 81 81 82 86 93 94 90 91 102 97 92 91 94 106 114 105 105 163 164 176 204 227 245 257 267 278 289 293 289 292 300 301 301
73 74 76 76 79 81 88 93 92 89 88 89 87 89 96 94 92 89 91 87 84 81 84 95 82 66 83 154 169 213 256 241 258 275 287 291 298 304 298 296 296 297 305
72 72 73 74 74 74 78 86 90 90 92 92 89 89 93 89 84 85 83 85 82 76 70 72 59 36 19 28 331 291 301 294 292 285 288 289 296 302 301 299 296 299 303
70 67 67 71 75 75 77 82 83 84 82 81 76 79 83 81 78 77 73 74 72 64 60 56 46 35 30 17 335 329 320 307 307 315 309 306 309 307 308 309 307 308 307
70 67 65 67 71 71 73 78 83 81 75 72 73 74 76 72 66 63 57 54 56 53 50 37 21 11 5 346 332 336 330 329 326 322 316 314 316 316 313 311 309 309 308
65 64 63 66 66 66 66 69 75 75 71 68 67 64 64 59 54 47 38 32 34 32 18 359 339 337 336 320 313 320 318 313 315 312 307 305 310 316 318 317 318 318 313
58 58 60 63 63 63 64 66 67 68 64 60 57 52 48 42 36 32 22 12 7 3 352 337 329 330 326 321 320 320 314 312 306 300 302 308 316 318 318 318 318 316 313
47 47 52 56 61 62 61 58 57 56 55 49 43 37 29 21 16 10 5 1 355 349 339 327 311 311 313 312 308 304 303 306 304 298 301 309 313 319 320 317 316 315 313
38 38 39 44 50 53 50 46 40 37 37 33 24 17 13 7 4 358 352 347 347 342 336 329 323 315 308 302 299 299 300 301 302 298 301 305 310 316 319 319 316 315 315
Height
5878 5877 5877 5877 5876 5876 5876 5875 5875 5875 5876 5877 5877 5877 5878 5878 5879 5880 5880 5881 5882 5883 5884 5884 5885 5886 5887 5887 5888 5889 5889 5889 5890 5891 5892 5892 5893 5894 5894 5895 5895 5896 5896
5879 5878 5878 5878 5877 5876 5876 5876 5876 5876 5876 5877 5877 5877 5878 5878 5879 5880 5880 5881 5882 5883 5884 5884 5885 5886 5887 5888 5888 5889 5889 5889 5889 5891 5892 5892 5893 5893 5894 5895 5895 5895 5896
5879 5879 5879 5878 5877 5877 5877 5877 5876 5876 5877 5877 5877 5877 5877 5878 5878 5879 5880 5882 5883 5883 5884 5884 5885 5886 5887 5888 5888 5889 5890 5889 5890 5891 5892 5892 5893 5893 5894 5895 5895 5895 5896
5880 5879 5879 5879 5878 5878 5877 5877 5877 5877 5877 5877 5877 5877 5877 5878 5878 5879 5880 5881 5883 5883 5884 5884 5885 5886 5887 5888 5889 5890 5890 5891 5891 5891 5892 5892 5893 5894 5894 5895 5895 5895 5896
5880 5880 5880 5880 5879 5879 5878 5878 5878 5877 5878 5878 5878 5878 5877 5877 5877 5878 5880 5882 5883 5883 5884 5884 5885 5886 5887 5888 5889 5890 5891 5891 5891 5891 5892 5892 5893 5893 5894 5894 5894 5894 5895
5881 5881 5881 5881 5880 5880 5879 5879 5879 5878 5878 5878 5878 5878 5877 5875 5876 5878 5880 5882 5883 5884 5884 5885 5886 5887 5888 5888 5889 5890 5890 5890 5891 5891 5891 5892 5892 5893 5893 5894 5894 5894 5894
5882 5882 5882 5882 5881 5881 5880 5880 5880 5879 5879 5878 5878 5878 5877 5877 5878 5879 5881 5882 5883 5884 5884 5885 5886 5887 5888 5889 5889 5890 5890 5890 5891 5891 5891 5891 5892 5893 5893 5894 5894 5894 5895
5883 5883 5883 5883 5883 5882 5881 5881 5881 5880 5880 5880 5879 5879 5879 5879 5879 5881 5882 5882 5883 5884 5884 5885 5886 5887 5888 5889 5889 5890 5890 5890 5891 5891 5891 5891 5892 5893 5893 5893 5894 5894 5894
5884 5884 5884 5884 5884 5883 5882 5882 5882 5881 5881 5881 5881 5880 5880 5880 5881 5882 5883 5883 5884 5884 5884 5885 5886 5887 5888 5889 5889 5889 5890 5890 5890 5891 5891 5891 5892 5892 5893 5893 5894 5894 5894
5885 5885 5885 5885 5885 5884 5883 5883 5883 5883 5882 5882 5882 5882 5882 5882 5882 5883 5883 5884 5884 5884 5885 5885 5886 5887 5888 5889 5889 5889 5889 5889 5890 5890 5891 5891 5891 5892 5892 5893 5893 5893 5894
5887 5887 5887 5886 5886 5885 5885 5884 5884 5884 5884 5883 5883 5883 5883 5883 5883 5884 5884 5884 5885 5885 5885 5885 5886 5886 5887 5888 5889 5889 5889 5890 5890 5890 5890 5891 5891 5891 5892 5892 5893 5893 5893
5888 5888 5888 5887 5887 5887 5886 5886 5885 5885 5885 5885 5884 5884 5884 5884 5884 5885 5885 5885 5885 5885 5885 5886 5886 5887 5887 5888 5889 5890 5890 5890 5890 5890 5890 5891 5891 5892 5892 5892 5892 5893 5892
5890 5890 5889 5889 5889 5888 5888 5887 5887 5887 5886 5886 5886 5885 5885 5885 5885 5886 5886 5886 5886 5886 5886 5887 5887 5888 5888 5889 5889 5890 5890 5891 5891 5890 5890 5891 5891 5892 5892 5892 5892 5892 5892
5892 5891 5891 5890 5890 5890 5889 5889 5889 5888 5888 5887 5887 5887 5887 5887 5886 5887 5887 5887 5887 5887 5887 5887 5888 5888 5888 5889 5890 5890 5891 5891 5891 5890 5891 5891 5891 5891 5892 5892 5891 5891 5891
5893 5893 5892 5892 5891 5891 5891 5891 5890 5890 5890 5889 5888 5888 5888 5888 5887 5887 5887 5887 5888 5888 5888 5888 5888 5889 5889 5890 5890 5890 5891 5891 5891 5890 5891 5891 5891 5891 5891 5891 5890 5890 5889
5895 5894 5894 5893 5893 5893 5892 5892 5892 5891 5891 5891 5890 5889 5889 5889 5889 5888 5888 5888 5889 5889 5889 5889 5889 5889 5889 5890 5890 5890 5890 5890 5890 5890 5890 5890 5890 5890 5890 5890 5889 5889 5888
5897 5896 5896 5895 5894 5894 5894 5893 5893 5893 5892 5892 5891 5890 5890 5890 5889 5889 5889 5890 5889 5890 5890 5890 5890 5890 5890 5890 5890 5890 5890 5890 5890 5890 5890 5890 5890 5890 5890 5889 5888 5888 5887
5900 5899 5898 5897 5896 5895 5895 5895 5894 5894 5894 5894 5893 5892 5891 5891 5891 5891 5890 5890 5890 5890 5891 5891 5891 5891 5890 5890 5890 5890 5890 5890 5890 5890 5890 5890 5890 5889 5889 5888 5888 5887 5886
5902 5901 5900 5899 5898 5897 5896 5896 5896 5895 5895 5895 5894 5893 5893 5892 5892 5892 5892 5892 5892 5891 5892 5891 5891 5891 5891 5890 5890 5890 5890 5890 5890 5889 5889 5889 5889 5888 5888 5887 5887 5886 5885
5905 5903 5902 5901 5900 5899 5897 5897 5897 5897 5897 5896 5896 5895 5894 5894 5894 5894 5893 5893 5893 5893 5893 5892 5892 5891 5891 5890 5890 5890 5890 5890 5889 5889 5889 5888 5888 5887 5887 5886 5885 5884 5883
5907 5906 5904 5903 5902 5901 5900 5899 5899 5899 5898 5898 5897 5896 5896 5896 5895 5895 5895 5894 5894 5894 5893 5893 5893 5892 5891 5890 5890 5890 5889 5889 5889 5888 5888 5887 5887 5886 5885 5884 5884 5882 5881
5909 5908 5907 5905 5904 5903 5902 5902 5901 5901 5900 5899 5899 5898 5898 5897 5897 5896 5896 5895 5895 5894 5894 5893 5893 5892 5891 5891 5890 5890 5889 5889 5888 5888 5887 5886 5886 5885 5884 5883 5882 5881 5880
5911 5910 5909 5907 5906 5905 5904 5903 5903 5903 5902 5901 5901 5900 5900 5899 5898 5897 5897 5896 5895 5895 5894 5893 5893 5892 5892 5891 5890 5890 5889 5889 5888 5887 5886 5885 5885 5884 5883 5882 5880 5879 5878
5912 5911 5910 5909 5908 5907 5906 5905 5905 5904 5903 5903 5902 5901 5901 5900 5899 5898 5897 5896 5895 5894 5894 5893 5892 5892 5891 5890 5890 5889 5888 5887 5887 5886 5885 5884 5883 5882 5881 5880 5879 5877 5876
5914 5912 5911 5910 5910 5909 5908 5907 5906 5905 5905 5904 5903 5902 5901 5900 5899 5898 5897 5896 5895 5894 5893 5892 5891 5890 5890 5889 5888 5887 5887 5886 5885 5884 5884 5883 5882 5880 5879 5878 5877 5875 5874
5915 5914 5912 5912 5911 5910 5909 5908 5907 5906 5905 5904 5903 5902 5901 5900 5899 5898 5896 5895 5894 5893 5892 5891 5890 5889 5888 5887 5886 5886 5885 5884 5883 5882 5881 5880 5879 5878 5877 5875 5874 5873 5871